Weather Roundup
Issued by NWS Chicago, IL

Home | Current Version | Previous Version | Text Only | Print | Product List | Glossary On
Versions: 1 2 3 4 5 6 7 8 9 10 11 12 13 14 15 16 17 18 19 20 21 22 23 24 25 26 27 28 29 30 31 32 33 34 35 36 37 38 39 40 41 42 43 44 45 46 47 48 49 50
000
NZUS59 KLOT 310910
HRRLOT

CHICAGO AREA WEATHER ROUNDUP
NATIONAL WEATHER SERVICE CHICAGO/ROMEOVILLE IL
400 AM CDT THU JUL 31 2014

NOTE: "FAIR" INDICATES FEW OR NO CLOUDS BELOW 12,000 FEET WITH NO
SIGNIFICANT WEATHER AND/OR OBSTRUCTIONS TO VISIBILITY.

* THESE STATIONS ARE NOT UNDER NWS QUALITY CONTROL. THEY ALSO MAY NOT
  REPORT WEATHER SUCH AS PRECIPITATION OR FOG.

ILZ005-006-012>014-019>023-311000-
NORTHEAST ILLINOIS

CITY           SKY/WX    TMP DP  RH WIND       PRES   REMARKS
OHARE          CLEAR     62  55  77 SW5       30.01F
MIDWAY         CLEAR     64  58  80 SW7       30.02F
AURORA         CLEAR     54  52  93 CALM      30.03F FOG
LANSING*       PTCLDY    54  53  95 CALM      30.03F FOG
JOLIET*        FOG       56  55  96 CALM      30.04S VSB 1/2
WAUKEGAN       CLEAR     59  56  89 SW5       30.00F
DUPAGE AIRPORT CLEAR     59  57  93 S3        30.02F FOG
WHEELING       CLEAR     62  57  83 S5        30.03S
KANKAKEE*      FOG       54  53  98 CALM      30.05R VSB 1
MORRIS*        CLEAR     56  56 100 CALM      30.03S FOG
LEWIS AIRPORT* CLEAR     57  57  99 SW3       30.04S FOG
NORTHERLY IS     N/A     65  57  75 SW3         N/A
$$

WIZ051-052-058>065-066-070>072-311000-
SOUTHEAST WISCONSIN

CITY           SKY/WX    TMP DP  RH WIND       PRES   REMARKS
MILWAUKEE      PTCLDY    60  54  80 SW5       30.00S
KENOSHA*       PTCLDY    60  58  92 SW3       30.01S
RACINE*        PTCLDY    60  56  86 SW3       30.01F
BURLINGTON     CLEAR     53  52  98 SW3       30.01S
WAUKESHA       PTCLDY    55  52  88 CALM      30.01F
WEST BEND      CLOUDY    61  54  77 CALM      29.99F
$$

INZ001>003-010>013-019-020-311000-
NORTHWEST INDIANA

CITY           SKY/WX    TMP DP  RH WIND       PRES   REMARKS
GARY*          CLEAR     59  57  95 CALM      30.03F FOG
MICHIGAN CITY* NOT AVBL
RENSSELAER*    NOT AVBL
VALPARAISO     FOG       54  54 100 CALM      30.04S VSB 1/4
$$

LMZ740>746-311000-
SOUTHERN LAKE MICHIGAN

STATION/POSITION TIME  SKY/WX   TEMP WIND        PRES    VSBY
                                AIR  DIR/SP/G
                 (UTC)          (F)  (DEG/KT/KT) (MB)    (MI)
HARRISON CRIB    0900            67  210/ 13/ 14   N/A
BURNHAM HARBOR   0900            65  250/  3/  7   N/A
CALUMET HARBOR   0900            63  230/  4/  5 1015.4S
BURNS HARBOR     NOT AVBL
MICHIGAN CITY    0900            64  160/  8/ 11   N/A
$$

ABBREVIATIONS USED IN REMARKS
   TC - TEMPERATURE IN CELSIUS
  WCI - WIND CHILL INDEX
   HX - HEAT INDEX
  VSB - VISIBILITY
$$



USA.gov is the U.S. government's official web portal to all federal, state and local government web resources and services.